Time,TemperatureF,DewpointF,PressureIn,WindDirection,WindDirectionDegrees,WindSpeedMPH,WindSpeedGustMPH,Humidity,HourlyPrecipIn,Conditions,Clouds,dailyrainin,SoftwareType,DateUTC
2013-01-11 00:00:00,34.0,22.7,30.58,North,0,0.0,0.0,63,0.00,CLR,FEW,0.00,WeatherDisplay:10.37,2013-01-11 05:00:00,
2013-01-11 00:03:00,33.6,22.4,30.59,North,0,0.0,0.0,63,0.00,CLR,FEW,0.00,WeatherDisplay:10.37,2013-01-11 05:03:00,
2013-01-11 00:08:00,33.6,22.4,30.59,North,0,0.0,0.0,63,0.00,CLR,FEW,0.00,WeatherDisplay:10.37,2013-01-11 05:08:00,
2013-01-11 00:13:00,33.4,22.9,30.58,North,0,0.0,0.0,65,0.00,CLR,FEW,0.00,WeatherDisplay:10.37,2013-01-11 05:13:00,
2013-01-11 00:18:00,33.4,22.9,30.58,North,0,0.0,0.0,65,0.00,CLR,FEW,0.00,WeatherDisplay:10.37,2013-01-11 05:18:00,
2013-01-11 00:23:00,33.4,22.9,30.58,North,0,0.0,0.0,65,0.00,CLR,FEW,0.00,WeatherDisplay:10.37,2013-01-11 05:23:00,
2013-01-11 00:28:00,32.9,22.8,30.59,North,0,0.0,0.0,66,0.00,CLR,FEW,0.00,WeatherDisplay:10.37,2013-01-11 05:28:00,
2013-01-11 00:33:00,33.1,22.6,30.59,North,0,0.0,0.0,65,0.00,CLR,FEW,0.00,WeatherDisplay:10.37,2013-01-11 05:33:00,
2013-01-11 00:38:00,32.7,22.6,30.59,North,0,0.0,0.0,66,0.00,CLR,FEW,0.00,WeatherDisplay:10.37,2013-01-11 05:38:00,
2013-01-11 00:43:00,32.5,22.4,30.58,North,0,0.0,0.0,66,0.00,CLR,FEW,0.00,WeatherDisplay:10.37,2013-01-11 05:43:00,
2013-01-11 00:48:00,32.5,22.4,30.57,North,0,0.0,0.0,66,0.00,CLR,FEW,0.00,WeatherDisplay:10.37,2013-01-11 05:48:00,
2013-01-11 00:53:00,32.5,22.1,30.57,North,0,0.0,0.0,65,0.00,CLR,FEW,0.00,WeatherDisplay:10.37,2013-01-11 05:53:00,
2013-01-11 00:58:00,32.7,22.2,30.57,North,0,0.0,0.0,65,0.00,CLR,FEW,0.00,WeatherDisplay:10.37,2013-01-11 05:58:00,
2013-01-11 01:03:00,32.7,22.2,30.57,North,0,0.0,0.0,65,0.00,CLR,FEW,0.00,WeatherDisplay:10.37,2013-01-11 06:03:00,
2013-01-11 01:08:00,33.3,22.4,30.57,North,0,0.0,0.0,64,0.00,CLR,FEW,0.00,WeatherDisplay:10.37,2013-01-11 06:08:00,
2013-01-11 01:13:00,33.1,22.2,30.57,North,0,0.0,0.0,64,0.00,CLR,FEW,0.00,WeatherDisplay:10.37,2013-01-11 06:13:00,
2013-01-11 01:18:00,32.9,22.0,30.57,North,0,0.0,0.0,64,0.00,CLR,FEW,0.00,WeatherDisplay:10.37,2013-01-11 06:18:00,
2013-01-11 01:23:00,32.7,22.2,30.57,North,0,0.0,0.0,65,0.00,CLR,FEW,0.00,WeatherDisplay:10.37,2013-01-11 06:23:00,
2013-01-11 01:28:00,32.7,22.2,30.57,North,0,0.0,0.0,65,0.00,CLR,FEW,0.00,WeatherDisplay:10.37,2013-01-11 06:28:00,
2013-01-11 01:33:00,32.5,22.1,30.57,North,0,0.0,0.0,65,0.00,CLR,FEW,0.00,WeatherDisplay:10.37,2013-01-11 06:33:00,
2013-01-11 01:38:00,32.5,22.1,30.58,North,0,0.0,0.0,65,0.00,CLR,FEW,0.00,WeatherDisplay:10.37,2013-01-11 06:38:00,
2013-01-11 01:43:00,32.9,22.4,30.57,North,0,0.0,0.0,65,0.00,CLR,FEW,0.00,WeatherDisplay:10.37,2013-01-11 06:43:00,
2013-01-11 01:48:00,33.1,22.2,30.57,North,0,0.0,0.0,64,0.00,CLR,FEW,0.00,WeatherDisplay:10.37,2013-01-11 06:48:00,
2013-01-11 01:53:00,32.9,22.4,30.57,North,0,0.0,0.0,65,0.00,CLR,FEW,0.00,WeatherDisplay:10.37,2013-01-11 06:53:00,
2013-01-11 01:58:00,32.5,22.1,30.58,North,0,0.0,0.0,65,0.00,CLR,FEW,0.00,WeatherDisplay:10.37,2013-01-11 06:58:00,
2013-01-11 02:03:00,32.5,22.1,30.57,North,0,0.0,0.0,65,0.00,CLR,FEW,0.00,WeatherDisplay:10.37,2013-01-11 07:03:00,
2013-01-11 02:08:00,32.5,22.1,30.58,North,0,0.0,0.0,65,0.00,CLR,FEW,0.00,WeatherDisplay:10.37,2013-01-11 07:08:00,
2013-01-11 02:13:00,32.0,21.6,30.57,North,0,0.0,0.0,65,0.00,CLR,FEW,0.00,WeatherDisplay:10.37,2013-01-11 07:13:00,
2013-01-11 02:18:00,31.6,21.9,30.57,North,0,0.0,0.0,67,0.00,CLR,FEW,0.00,WeatherDisplay:10.37,2013-01-11 07:18:00,
2013-01-11 02:23:00,31.8,22.1,30.57,North,0,0.0,0.0,67,0.00,CLR,FEW,0.00,WeatherDisplay:10.37,2013-01-11 07:23:00,
2013-01-11 02:28:00,31.6,21.9,30.57,North,0,0.0,0.0,67,0.00,CLR,FEW,0.00,WeatherDisplay:10.37,2013-01-11 07:28:00,
2013-01-11 02:33:00,31.3,21.6,30.57,North,0,0.0,0.0,67,0.00,CLR,FEW,0.00,WeatherDisplay:10.37,2013-01-11 07:33:00,
2013-01-11 02:38:00,30.9,21.2,30.57,North,0,0.0,0.0,67,0.00,CLR,FEW,0.00,WeatherDisplay:10.37,2013-01-11 07:38:00,
2013-01-11 02:43:00,30.0,20.7,30.57,North,0,0.0,0.0,68,0.00,CLR,FEW,0.00,WeatherDisplay:10.37,2013-01-11 07:43:00,
2013-01-11 02:48:00,29.8,20.9,30.57,North,0,0.0,0.0,69,0.00,CLR,FEW,0.00,WeatherDisplay:10.37,2013-01-11 07:48:00,
2013-01-11 02:53:00,29.8,20.9,30.57,North,0,0.0,0.0,69,0.00,CLR,FEW,0.00,WeatherDisplay:10.37,2013-01-11 07:53:00,
2013-01-11 02:58:00,29.3,21.4,30.57,North,0,0.0,0.0,72,0.00,CLR,FEW,0.00,WeatherDisplay:10.37,2013-01-11 07:58:00,
2013-01-11 03:03:00,30.4,22.4,30.56,North,0,0.0,0.0,72,0.00,CLR,FEW,0.00,WeatherDisplay:10.37,2013-01-11 08:03:00,
2013-01-11 03:08:00,30.7,22.4,30.57,North,0,0.0,0.0,71,0.00,CLR,FEW,0.00,WeatherDisplay:10.37,2013-01-11 08:08:00,
2013-01-11 03:13:00,30.9,22.3,30.56,North,0,0.0,0.0,70,0.00,CLR,FEW,0.00,WeatherDisplay:10.37,2013-01-11 08:13:00,
2013-01-11 03:18:00,30.7,22.1,30.56,North,0,0.0,0.0,70,0.00,CLR,FEW,0.00,WeatherDisplay:10.37,2013-01-11 08:18:00,
2013-01-11 03:23:00,30.7,22.1,30.55,North,0,0.0,0.0,70,0.00,CLR,FEW,0.00,WeatherDisplay:10.37,2013-01-11 08:23:00,
2013-01-11 03:28:00,31.1,22.1,30.55,North,0,0.0,0.0,69,0.00,CLR,FEW,0.00,WeatherDisplay:10.37,2013-01-11 08:28:00,
2013-01-11 03:33:00,31.3,22.3,30.54,North,0,0.0,0.0,69,0.00,CLR,FEW,0.00,WeatherDisplay:10.37,2013-01-11 08:33:00,
2013-01-11 03:38:00,31.1,22.1,30.55,North,0,0.0,0.0,69,0.00,CLR,FEW,0.00,WeatherDisplay:10.37,2013-01-11 08:38:00,
2013-01-11 03:43:00,31.3,21.9,30.55,North,0,0.0,0.0,68,0.00,CLR,FEW,0.00,WeatherDisplay:10.37,2013-01-11 08:43:00,
2013-01-11 03:48:00,31.1,21.8,30.54,North,0,0.0,0.0,68,0.00,CLR,FEW,0.00,WeatherDisplay:10.37,2013-01-11 08:48:00,
2013-01-11 03:53:00,30.9,21.9,30.54,North,0,0.0,0.0,69,0.00,CLR,FEW,0.00,WeatherDisplay:10.37,2013-01-11 08:53:00,
2013-01-11 03:58:00,30.9,21.9,30.54,North,0,0.0,0.0,69,0.00,CLR,FEW,0.00,WeatherDisplay:10.37,2013-01-11 08:58:00,
2013-01-11 04:03:00,30.9,21.9,30.54,North,0,0.0,0.0,69,0.00,CLR,FEW,0.00,WeatherDisplay:10.37,2013-01-11 09:03:00,
2013-01-11 04:08:00,30.9,21.9,30.54,North,0,0.0,0.0,69,0.00,CLR,FEW,0.00,WeatherDisplay:10.37,2013-01-11 09:08:00,
2013-01-11 04:13:00,30.9,21.6,30.54,North,0,0.0,0.0,68,0.00,CLR,FEW,0.00,WeatherDisplay:10.37,2013-01-11 09:13:00,
2013-01-11 04:18:00,31.1,21.8,30.54,North,0,0.0,0.0,68,0.00,CLR,FEW,0.00,WeatherDisplay:10.37,2013-01-11 09:18:00,
2013-01-11 04:23:00,30.9,21.6,30.54,North,0,0.0,0.0,68,0.00,CLR,FEW,0.00,WeatherDisplay:10.37,2013-01-11 09:23:00,
2013-01-11 04:28:00,30.7,21.8,30.54,North,0,0.0,0.0,69,0.00,CLR,FEW,0.00,WeatherDisplay:10.37,2013-01-11 09:28:00,
2013-01-11 04:33:00,30.7,21.8,30.53,North,0,0.0,0.0,69,0.00,CLR,FEW,0.00,WeatherDisplay:10.37,2013-01-11 09:33:00,
2013-01-11 04:38:00,30.7,21.8,30.54,North,0,0.0,0.0,69,0.00,CLR,FEW,0.00,WeatherDisplay:10.37,2013-01-11 09:38:00,
2013-01-11 04:43:00,30.7,21.8,30.53,North,0,0.0,0.0,69,0.00,CLR,FEW,0.00,WeatherDisplay:10.37,2013-01-11 09:43:00,
2013-01-11 04:48:00,30.9,21.9,30.53,North,0,0.0,0.0,69,0.00,CLR,FEW,0.00,WeatherDisplay:10.37,2013-01-11 09:48:00,
2013-01-11 04:53:00,30.7,21.8,30.53,North,0,0.0,0.0,69,0.00,CLR,FEW,0.00,WeatherDisplay:10.37,2013-01-11 09:53:00,
2013-01-11 04:58:00,30.6,21.6,30.53,North,0,0.0,0.0,69,0.00,CLR,FEW,0.00,WeatherDisplay:10.37,2013-01-11 09:58:00,
2013-01-11 05:03:00,30.6,21.6,30.53,North,0,0.0,0.0,69,0.00,CLR,FEW,0.00,WeatherDisplay:10.37,2013-01-11 10:03:00,
2013-01-11 05:08:00,30.4,21.4,30.53,North,0,0.0,0.0,69,0.00,CLR,FEW,0.00,WeatherDisplay:10.37,2013-01-11 10:08:00,
2013-01-11 05:13:00,30.4,21.4,30.53,North,0,0.0,0.0,69,0.00,CLR,FEW,0.00,WeatherDisplay:10.37,2013-01-11 10:13:00,
2013-01-11 05:18:00,30.0,21.1,30.53,North,0,0.0,0.0,69,0.00,CLR,FEW,0.00,WeatherDisplay:10.37,2013-01-11 10:18:00,
2013-01-11 05:23:00,30.0,21.4,30.53,North,0,0.0,0.0,70,0.00,CLR,FEW,0.00,WeatherDisplay:10.37,2013-01-11 10:23:00,
2013-01-11 05:28:00,29.8,21.2,30.54,North,0,0.0,0.0,70,0.00,CLR,FEW,0.00,WeatherDisplay:10.37,2013-01-11 10:28:00,
2013-01-11 05:33:00,29.8,21.2,30.54,North,0,0.0,0.0,70,0.00,CLR,FEW,0.00,WeatherDisplay:10.37,2013-01-11 10:33:00,
2013-01-11 05:38:00,29.7,21.4,30.54,North,0,0.0,0.0,71,0.00,CLR,FEW,0.00,WeatherDisplay:10.37,2013-01-11 10:38:00,
2013-01-11 05:43:00,29.8,21.6,30.54,North,0,0.0,0.0,71,0.00,CLR,FEW,0.00,WeatherDisplay:10.37,2013-01-11 10:43:00,
2013-01-11 05:48:00,29.8,21.6,30.54,North,0,0.0,0.0,71,0.00,CLR,FEW,0.00,WeatherDisplay:10.37,2013-01-11 10:48:00,
2013-01-11 05:53:00,29.8,21.6,30.54,North,0,0.0,0.0,71,0.00,CLR,FEW,0.00,WeatherDisplay:10.37,2013-01-11 10:53:00,
2013-01-11 05:58:00,29.7,21.7,30.54,North,0,0.0,0.0,72,0.00,CLR,FEW,0.00,WeatherDisplay:10.37,2013-01-11 10:58:00,
2013-01-11 06:03:00,29.5,21.6,30.54,North,0,0.0,0.0,72,0.00,CLR,FEW,0.00,WeatherDisplay:10.37,2013-01-11 11:03:00,
2013-01-11 06:08:00,29.5,21.6,30.54,North,0,0.0,0.0,72,0.00,CLR,FEW,0.00,WeatherDisplay:10.37,2013-01-11 11:08:00,
2013-01-11 06:13:00,29.5,21.9,30.55,North,0,0.0,0.0,73,0.00,CLR,FEW,0.00,WeatherDisplay:10.37,2013-01-11 11:13:00,
2013-01-11 06:18:00,29.5,22.2,30.55,North,0,0.0,0.0,74,0.00,CLR,FEW,0.00,WeatherDisplay:10.37,2013-01-11 11:18:00,
2013-01-11 06:23:00,29.5,22.2,30.55,North,0,0.0,0.0,74,0.00,CLR,FEW,0.00,WeatherDisplay:10.37,2013-01-11 11:23:00,
2013-01-11 06:28:00,29.8,22.6,30.54,North,0,0.0,0.0,74,0.00,CLR,FEW,0.00,WeatherDisplay:10.37,2013-01-11 11:28:00,
2013-01-11 06:33:00,29.8,22.6,30.55,North,0,0.0,0.0,74,0.00,CLR,FEW,0.00,WeatherDisplay:10.37,2013-01-11 11:33:00,
2013-01-11 06:38:00,29.8,22.2,30.54,North,0,0.0,0.0,73,0.00,CLR,FEW,0.00,WeatherDisplay:10.37,2013-01-11 11:38:00,
2013-01-11 06:43:00,29.5,21.9,30.55,North,0,0.0,0.0,73,0.00,CLR,FEW,0.00,WeatherDisplay:10.37,2013-01-11 11:43:00,
2013-01-11 06:48:00,29.5,21.9,30.56,North,0,0.0,0.0,73,0.00,CLR,FEW,0.00,WeatherDisplay:10.37,2013-01-11 11:48:00,
2013-01-11 06:53:00,29.5,21.9,30.55,North,0,0.0,0.0,73,0.00,CLR,FEW,0.00,WeatherDisplay:10.37,2013-01-11 11:53:00,
2013-01-11 06:58:00,29.5,21.6,30.56,North,0,0.0,0.0,72,0.00,CLR,FEW,0.00,WeatherDisplay:10.37,2013-01-11 11:58:00,
2013-01-11 07:03:00,29.5,21.6,30.56,North,0,0.0,0.0,72,0.00,CLR,FEW,0.00,WeatherDisplay:10.37,2013-01-11 12:03:00,
2013-01-11 07:08:00,29.5,21.6,30.56,North,0,0.0,0.0,72,0.00,CLR,FEW,0.00,WeatherDisplay:10.37,2013-01-11 12:08:00,
2013-01-11 07:13:00,29.5,21.9,30.56,North,0,0.0,0.0,73,0.00,CLR,FEW,0.00,WeatherDisplay:10.37,2013-01-11 12:13:00,
2013-01-11 07:18:00,29.5,21.9,30.56,North,0,0.0,0.0,73,0.00,CLR,FEW,0.00,WeatherDisplay:10.37,2013-01-11 12:18:00,
2013-01-11 07:23:00,29.8,22.2,30.56,North,0,0.0,0.0,73,0.00,CLR,FEW,0.00,WeatherDisplay:10.37,2013-01-11 12:23:00,
2013-01-11 07:28:00,30.0,22.1,30.56,North,0,0.0,0.0,72,0.00,CLR,FEW,0.00,WeatherDisplay:10.37,2013-01-11 12:28:00,
2013-01-11 07:33:00,30.4,22.4,30.55,North,0,0.0,0.0,72,0.00,CLR,FEW,0.00,WeatherDisplay:10.37,2013-01-11 12:33:00,
2013-01-11 07:38:00,30.4,22.1,30.54,North,0,0.0,0.0,71,0.00,CLR,FEW,0.00,WeatherDisplay:10.37,2013-01-11 12:38:00,
2013-01-11 07:43:00,30.6,22.3,30.55,North,0,0.0,0.0,71,0.00,CLR,FEW,0.00,WeatherDisplay:10.37,2013-01-11 12:43:00,
2013-01-11 07:48:00,30.9,22.6,30.55,North,0,0.0,0.0,71,0.00,CLR,FEW,0.00,WeatherDisplay:10.37,2013-01-11 12:48:00,
2013-01-11 07:53:00,31.1,22.8,30.55,North,0,0.0,0.0,71,0.00,CLR,FEW,0.00,WeatherDisplay:10.37,2013-01-11 12:53:00,
2013-01-11 07:58:00,31.3,23.0,30.55,North,0,0.0,0.0,71,0.00,CLR,FEW,0.00,WeatherDisplay:10.37,2013-01-11 12:58:00,
2013-01-11 08:03:00,31.6,23.0,30.55,North,0,0.0,0.0,70,0.00,CLR,FEW,0.00,WeatherDisplay:10.37,2013-01-11 13:03:00,
2013-01-11 08:08:00,31.8,23.1,30.56,North,0,0.0,0.0,70,0.00,CLR,FEW,0.00,WeatherDisplay:10.37,2013-01-11 13:08:00,
2013-01-11 08:13:00,32.2,23.5,30.56,North,0,0.0,0.0,70,0.00,CLR,FEW,0.00,WeatherDisplay:10.37,2013-01-11 13:13:00,
2013-01-11 08:18:00,32.5,23.8,30.57,North,0,0.0,0.0,70,0.00,CLR,FEW,0.00,WeatherDisplay:10.37,2013-01-11 13:18:00,
2013-01-11 08:23:00,32.5,23.8,30.56,North,0,0.0,0.0,70,0.00,CLR,FEW,0.00,WeatherDisplay:10.37,2013-01-11 13:23:00,
2013-01-11 08:28:00,32.7,24.0,30.57,North,0,0.0,0.0,70,0.00,CLR,FEW,0.00,WeatherDisplay:10.37,2013-01-11 13:28:00,
2013-01-11 08:33:00,33.1,24.4,30.56,North,0,0.0,0.0,70,0.00,CLR,FEW,0.00,WeatherDisplay:10.37,2013-01-11 13:33:00,
2013-01-11 08:38:00,33.1,24.4,30.57,North,0,0.0,0.0,70,0.00,CLR,FEW,0.00,WeatherDisplay:10.37,2013-01-11 13:38:00,
2013-01-11 08:43:00,33.6,24.9,30.57,North,0,0.0,0.0,70,0.00,CLR,FEW,0.00,WeatherDisplay:10.37,2013-01-11 13:43:00,
2013-01-11 08:48:00,34.2,25.4,30.57,North,0,0.0,0.0,70,0.00,CLR,FEW,0.00,WeatherDisplay:10.37,2013-01-11 13:48:00,
2013-01-11 08:53:00,34.5,25.7,30.57,North,0,0.0,0.0,70,0.00,CLR,FEW,0.00,WeatherDisplay:10.37,2013-01-11 13:53:00,
2013-01-11 08:58:00,34.5,25.4,30.57,North,0,0.0,0.0,69,0.00,CLR,FEW,0.00,WeatherDisplay:10.37,2013-01-11 13:58:00,
2013-01-11 09:03:00,34.2,25.4,30.57,North,0,0.0,0.0,70,0.00,CLR,FEW,0.00,WeatherDisplay:10.37,2013-01-11 14:03:00,
2013-01-11 09:08:00,34.2,25.4,30.56,North,0,0.0,0.0,70,0.00,CLR,FEW,0.00,WeatherDisplay:10.37,2013-01-11 14:08:00,
2013-01-11 09:13:00,34.3,25.6,30.55,North,0,0.0,0.0,70,0.00,CLR,FEW,0.00,WeatherDisplay:10.37,2013-01-11 14:13:00,
2013-01-11 09:18:00,34.5,25.7,30.55,North,0,0.0,0.0,70,0.00,CLR,FEW,0.00,WeatherDisplay:10.37,2013-01-11 14:18:00,
2013-01-11 09:23:00,35.2,26.4,30.55,North,0,0.0,0.0,70,0.00,CLR,FEW,0.00,WeatherDisplay:10.37,2013-01-11 14:23:00,
2013-01-11 09:28:00,35.2,26.1,30.56,North,0,0.0,0.0,69,0.00,CLR,FEW,0.00,WeatherDisplay:10.37,2013-01-11 14:28:00,
2013-01-11 09:33:00,34.5,25.4,30.56,North,0,0.0,0.0,69,0.00,CLR,FEW,0.00,WeatherDisplay:10.37,2013-01-11 14:33:00,
2013-01-11 09:38:00,35.2,26.1,30.56,North,0,0.0,0.0,69,0.00,CLR,FEW,0.00,WeatherDisplay:10.37,2013-01-11 14:38:00,
2013-01-11 09:43:00,35.2,25.7,30.56,North,0,0.0,0.0,68,0.00,CLR,FEW,0.00,WeatherDisplay:10.37,2013-01-11 14:43:00,
2013-01-11 09:48:00,35.2,25.4,30.56,North,0,0.0,0.0,67,0.00,CLR,FEW,0.00,WeatherDisplay:10.37,2013-01-11 14:48:00,
2013-01-11 09:53:00,35.2,25.7,30.56,North,0,0.0,0.0,68,0.00,CLR,FEW,0.00,WeatherDisplay:10.37,2013-01-11 14:53:00,
2013-01-11 09:58:00,36.0,26.4,30.56,North,0,0.0,0.0,68,0.00,CLR,FEW,0.00,WeatherDisplay:10.37,2013-01-11 14:58:00,
2013-01-11 10:03:00,37.6,27.6,30.56,North,0,0.0,0.0,67,0.00,CLR,FEW,0.00,WeatherDisplay:10.37,2013-01-11 15:03:00,
2013-01-11 10:08:00,37.8,27.4,30.55,North,0,0.0,0.0,66,0.00,CLR,FEW,0.00,WeatherDisplay:10.37,2013-01-11 15:08:00,
2013-01-11 10:13:00,37.6,26.5,30.55,North,0,0.0,0.0,64,0.00,CLR,FEW,0.00,WeatherDisplay:10.37,2013-01-11 15:13:00,
2013-01-11 10:18:00,37.6,26.9,30.54,North,0,0.0,0.0,65,0.00,CLR,FEW,0.00,WeatherDisplay:10.37,2013-01-11 15:18:00,
2013-01-11 10:23:00,37.6,26.9,30.54,North,0,0.0,0.0,65,0.00,CLR,FEW,0.00,WeatherDisplay:10.37,2013-01-11 15:23:00,
2013-01-11 10:28:00,37.6,26.5,30.53,North,0,0.0,0.0,64,0.00,CLR,FEW,0.00,WeatherDisplay:10.37,2013-01-11 15:28:00,
2013-01-11 10:33:00,37.0,26.4,30.52,North,0,0.0,0.0,65,0.00,CLR,FEW,0.00,WeatherDisplay:10.37,2013-01-11 15:33:00,
2013-01-11 10:38:00,38.7,28.3,30.52,North,0,0.0,0.0,66,0.00,CLR,FEW,0.00,WeatherDisplay:10.37,2013-01-11 15:38:00,
2013-01-11 10:43:00,39.6,28.4,30.52,North,0,0.0,0.0,64,0.00,CLR,FEW,0.00,WeatherDisplay:10.37,2013-01-11 15:43:00,
2013-01-11 10:48:00,39.9,28.7,30.52,North,0,0.0,0.0,64,0.00,CLR,FEW,0.00,WeatherDisplay:10.37,2013-01-11 15:48:00,
2013-01-11 10:53:00,39.9,29.1,30.51,North,0,0.0,0.0,65,0.00,CLR,FEW,0.00,WeatherDisplay:10.37,2013-01-11 15:53:00,
2013-01-11 10:58:00,40.3,29.4,30.52,North,0,0.0,0.0,65,0.00,CLR,FEW,0.00,WeatherDisplay:10.37,2013-01-11 15:58:00,
2013-01-11 11:03:00,39.9,28.7,30.52,North,0,0.0,0.0,64,0.00,CLR,FEW,0.00,WeatherDisplay:10.37,2013-01-11 16:03:00,
2013-01-11 11:08:00,40.6,29.4,30.51,North,0,0.0,0.0,64,0.00,CLR,FEW,0.00,WeatherDisplay:10.37,2013-01-11 16:08:00,
2013-01-11 11:13:00,40.3,28.7,30.51,North,0,0.0,0.0,63,0.00,CLR,FEW,0.00,WeatherDisplay:10.37,2013-01-11 16:13:00,
2013-01-11 11:18:00,40.6,29.4,30.51,North,0,0.0,0.0,64,0.00,CLR,FEW,0.00,WeatherDisplay:10.37,2013-01-11 16:18:00,
2013-01-11 11:23:00,40.8,29.6,30.50,North,0,0.0,0.0,64,0.00,CLR,FEW,0.00,WeatherDisplay:10.37,2013-01-11 16:23:00,
2013-01-11 11:28:00,41.2,29.9,30.50,North,0,0.0,0.0,64,0.00,CLR,FEW,0.00,WeatherDisplay:10.37,2013-01-11 16:28:00,
2013-01-11 11:33:00,41.2,29.9,30.49,North,0,0.0,0.0,64,0.00,CLR,FEW,0.00,WeatherDisplay:10.37,2013-01-11 16:33:00,
2013-01-11 11:38:00,41.7,30.4,30.49,North,0,0.0,0.0,64,0.00,CLR,FEW,0.00,WeatherDisplay:10.37,2013-01-11 16:38:00,
2013-01-11 11:43:00,41.5,29.9,30.49,North,0,0.0,0.0,63,0.00,CLR,FEW,0.00,WeatherDisplay:10.37,2013-01-11 16:43:00,
2013-01-11 11:48:00,40.8,29.6,30.48,North,0,0.0,0.0,64,0.00,CLR,FEW,0.00,WeatherDisplay:10.37,2013-01-11 16:48:00,
2013-01-11 11:53:00,39.9,29.1,30.48,North,0,0.0,0.0,65,0.00,CLR,FEW,0.00,WeatherDisplay:10.37,2013-01-11 16:53:00,
2013-01-11 11:58:00,40.5,29.6,30.48,North,0,0.0,0.0,65,0.00,CLR,FEW,0.00,WeatherDisplay:10.37,2013-01-11 16:58:00,
2013-01-11 12:03:00,40.8,30.0,30.48,North,0,0.0,0.0,65,0.00,CLR,FEW,0.00,WeatherDisplay:10.37,2013-01-11 17:03:00,
2013-01-11 12:08:00,40.8,29.6,30.48,North,0,0.0,0.0,64,0.00,CLR,FEW,0.00,WeatherDisplay:10.37,2013-01-11 17:08:00,
2013-01-11 12:13:00,40.5,29.2,30.47,North,0,0.0,0.0,64,0.00,CLR,FEW,0.00,WeatherDisplay:10.37,2013-01-11 17:13:00,
2013-01-11 12:18:00,40.3,29.1,30.47,North,0,0.0,0.0,64,0.00,CLR,FEW,0.00,WeatherDisplay:10.37,2013-01-11 17:18:00,
2013-01-11 12:23:00,40.3,29.1,30.47,North,0,0.0,0.0,64,0.00,CLR,FEW,0.00,WeatherDisplay:10.37,2013-01-11 17:23:00,
2013-01-11 12:28:00,40.1,28.9,30.47,North,0,0.0,0.0,64,0.00,CLR,FEW,0.00,WeatherDisplay:10.37,2013-01-11 17:28:00,
2013-01-11 12:33:00,39.9,29.1,30.47,North,0,0.0,0.0,65,0.00,CLR,FEW,0.00,WeatherDisplay:10.37,2013-01-11 17:33:00,
2013-01-11 12:38:00,40.1,29.3,30.46,North,0,0.0,0.0,65,0.00,CLR,FEW,0.00,WeatherDisplay:10.37,2013-01-11 17:38:00,
2013-01-11 12:43:00,40.1,29.3,30.47,North,0,0.0,0.0,65,0.00,CLR,FEW,0.00,WeatherDisplay:10.37,2013-01-11 17:43:00,
2013-01-11 12:48:00,40.1,29.3,30.46,North,0,0.0,0.0,65,0.00,CLR,FEW,0.00,WeatherDisplay:10.37,2013-01-11 17:48:00,
2013-01-11 12:53:00,39.6,28.8,30.46,North,0,0.0,0.0,65,0.00,CLR,FEW,0.00,WeatherDisplay:10.37,2013-01-11 17:53:00,
2013-01-11 12:58:00,39.7,28.9,30.45,North,0,0.0,0.0,65,0.00,CLR,FEW,0.00,WeatherDisplay:10.37,2013-01-11 17:58:00,
2013-01-11 13:03:00,40.1,29.3,30.46,North,0,0.0,0.0,65,0.00,CLR,FEW,0.00,WeatherDisplay:10.37,2013-01-11 18:03:00,
2013-01-11 13:08:00,40.6,29.8,30.46,North,0,0.0,0.0,65,0.00,CLR,FEW,0.00,WeatherDisplay:10.37,2013-01-11 18:08:00,
2013-01-11 13:13:00,40.6,29.8,30.45,North,0,0.0,0.0,65,0.00,CLR,FEW,0.00,WeatherDisplay:10.37,2013-01-11 18:13:00,
2013-01-11 13:18:00,40.8,30.0,30.46,North,0,0.0,0.0,65,0.00,CLR,FEW,0.00,WeatherDisplay:10.37,2013-01-11 18:18:00,
2013-01-11 13:23:00,40.8,30.0,30.46,North,0,0.0,0.0,65,0.00,CLR,FEW,0.00,WeatherDisplay:10.37,2013-01-11 18:23:00,
2013-01-11 13:29:00,41.2,30.3,30.45,North,0,0.0,0.0,65,0.00,CLR,FEW,0.00,WeatherDisplay:10.37,2013-01-11 18:29:00,
2013-01-11 13:34:00,40.8,30.0,30.44,North,0,0.0,0.0,65,0.00,CLR,FEW,0.00,WeatherDisplay:10.37,2013-01-11 18:34:00,
2013-01-11 13:39:00,40.1,28.9,30.44,North,0,0.0,0.0,64,0.00,CLR,FEW,0.00,WeatherDisplay:10.37,2013-01-11 18:39:00,
2013-01-11 13:44:00,39.9,29.1,30.44,North,0,0.0,0.0,65,0.00,CLR,FEW,0.00,WeatherDisplay:10.37,2013-01-11 18:44:00,
2013-01-11 13:49:00,40.3,29.4,30.44,North,0,0.0,0.0,65,0.00,CLR,FEW,0.00,WeatherDisplay:10.37,2013-01-11 18:49:00,
2013-01-11 13:54:00,40.3,29.4,30.45,North,0,0.0,0.0,65,0.00,CLR,FEW,0.00,WeatherDisplay:10.37,2013-01-11 18:54:00,
2013-01-11 13:59:00,40.6,29.8,30.44,North,0,0.0,0.0,65,0.00,CLR,FEW,0.00,WeatherDisplay:10.37,2013-01-11 18:59:00,
2013-01-11 14:04:00,40.3,29.4,30.44,North,0,0.0,0.0,65,0.00,CLR,FEW,0.00,WeatherDisplay:10.37,2013-01-11 19:04:00,
2013-01-11 14:09:00,40.5,29.6,30.44,North,0,0.0,0.0,65,0.00,CLR,FEW,0.00,WeatherDisplay:10.37,2013-01-11 19:09:00,
2013-01-11 14:14:00,40.6,29.8,30.44,North,0,0.0,0.0,65,0.00,CLR,FEW,0.00,WeatherDisplay:10.37,2013-01-11 19:14:00,
2013-01-11 14:19:00,40.5,29.6,30.44,North,0,0.0,0.0,65,0.00,CLR,FEW,0.00,WeatherDisplay:10.37,2013-01-11 19:19:00,
2013-01-11 14:24:00,40.6,29.8,30.44,North,0,0.0,0.0,65,0.00,CLR,FEW,0.00,WeatherDisplay:10.37,2013-01-11 19:24:00,
2013-01-11 14:29:00,40.6,29.8,30.44,North,0,0.0,0.0,65,0.00,CLR,FEW,0.00,WeatherDisplay:10.37,2013-01-11 19:29:00,
2013-01-11 14:34:00,40.5,29.6,30.44,North,0,0.0,0.0,65,0.00,CLR,FEW,0.00,WeatherDisplay:10.37,2013-01-11 19:34:00,
2013-01-11 14:39:00,40.6,29.8,30.44,North,0,0.0,0.0,65,0.00,CLR,FEW,0.00,WeatherDisplay:10.37,2013-01-11 19:39:00,
2013-01-11 14:44:00,40.6,29.8,30.44,North,0,0.0,0.0,65,0.00,CLR,FEW,0.00,WeatherDisplay:10.37,2013-01-11 19:44:00,
2013-01-11 14:49:00,40.8,30.0,30.44,North,0,0.0,0.0,65,0.00,CLR,FEW,0.00,WeatherDisplay:10.37,2013-01-11 19:49:00,
2013-01-11 14:54:00,40.8,30.0,30.44,North,0,0.0,0.0,65,0.00,CLR,FEW,0.00,WeatherDisplay:10.37,2013-01-11 19:54:00,
2013-01-11 14:59:00,40.6,29.8,30.44,North,0,0.0,0.0,65,0.00,CLR,FEW,0.00,WeatherDisplay:10.37,2013-01-11 19:59:00,
2013-01-11 15:04:00,40.3,29.4,30.43,North,0,0.0,0.0,65,0.00,CLR,FEW,0.00,WeatherDisplay:10.37,2013-01-11 20:04:00,
2013-01-11 15:09:00,39.9,29.5,30.43,North,0,0.0,0.0,66,0.00,CLR,FEW,0.00,WeatherDisplay:10.37,2013-01-11 20:09:00,
2013-01-11 15:14:00,39.7,29.7,30.43,North,0,0.0,0.0,67,0.00,CLR,FEW,0.00,WeatherDisplay:10.37,2013-01-11 20:14:00,
2013-01-11 15:19:00,39.0,29.3,30.41,North,0,0.0,0.0,68,0.00,CLR,FEW,0.00,WeatherDisplay:10.37,2013-01-11 20:19:00,
2013-01-11 15:24:00,39.0,29.7,30.41,North,0,0.0,0.0,69,0.00,CLR,FEW,0.00,WeatherDisplay:10.37,2013-01-11 20:24:00,
2013-01-11 15:29:00,38.8,29.5,30.41,North,0,0.0,0.0,69,0.00,CLR,FEW,0.00,WeatherDisplay:10.37,2013-01-11 20:29:00,
2013-01-11 15:34:00,39.0,29.7,30.41,North,0,0.0,0.0,69,0.00,CLR,FEW,0.00,WeatherDisplay:10.37,2013-01-11 20:34:00,
2013-01-11 15:39:00,39.4,30.1,30.41,North,0,0.0,0.0,69,0.00,CLR,FEW,0.00,WeatherDisplay:10.37,2013-01-11 20:39:00,
2013-01-11 15:44:00,39.6,30.2,30.41,North,0,0.0,0.0,69,0.00,CLR,FEW,0.00,WeatherDisplay:10.37,2013-01-11 20:44:00,
2013-01-11 15:49:00,39.7,30.4,30.39,North,0,0.0,0.0,69,0.00,CLR,FEW,0.00,WeatherDisplay:10.37,2013-01-11 20:49:00,
2013-01-11 15:54:00,39.7,30.8,30.39,North,0,0.0,0.0,70,0.00,CLR,FEW,0.00,WeatherDisplay:10.37,2013-01-11 20:54:00,
2013-01-11 15:59:00,39.9,30.9,30.40,North,0,0.0,0.0,70,0.00,CLR,FEW,0.00,WeatherDisplay:10.37,2013-01-11 20:59:00,
2013-01-11 16:04:00,39.9,30.9,30.39,North,0,0.0,0.0,70,0.00,CLR,FEW,0.00,WeatherDisplay:10.37,2013-01-11 21:04:00,
2013-01-11 16:09:00,39.7,30.8,30.40,North,0,0.0,0.0,70,0.00,CLR,FEW,0.00,WeatherDisplay:10.37,2013-01-11 21:09:00,
2013-01-11 16:14:00,39.9,30.9,30.40,North,0,0.0,0.0,70,0.00,CLR,FEW,0.00,WeatherDisplay:10.37,2013-01-11 21:14:00,
2013-01-11 16:19:00,39.9,30.9,30.40,North,0,0.0,0.0,70,0.00,CLR,FEW,0.00,WeatherDisplay:10.37,2013-01-11 21:19:00,
2013-01-11 16:24:00,39.7,30.8,30.40,North,0,0.0,0.0,70,0.00,CLR,FEW,0.00,WeatherDisplay:10.37,2013-01-11 21:24:00,
2013-01-11 16:29:00,39.7,30.8,30.40,North,0,0.0,0.0,70,0.00,CLR,FEW,0.00,WeatherDisplay:10.37,2013-01-11 21:29:00,
2013-01-11 16:34:00,39.7,30.8,30.39,North,0,0.0,0.0,70,0.00,CLR,FEW,0.00,WeatherDisplay:10.37,2013-01-11 21:34:00,
2013-01-11 16:39:00,39.6,30.9,30.39,North,0,0.0,0.0,71,0.00,CLR,FEW,0.00,WeatherDisplay:10.37,2013-01-11 21:39:00,
2013-01-11 16:44:00,39.6,30.9,30.39,North,0,0.0,0.0,71,0.00,CLR,FEW,0.00,WeatherDisplay:10.37,2013-01-11 21:44:00,
2013-01-11 16:49:00,39.6,31.3,30.39,North,0,0.0,0.0,72,0.00,CLR,FEW,0.00,WeatherDisplay:10.37,2013-01-11 21:49:00,
2013-01-11 16:54:00,39.4,31.1,30.38,North,0,0.0,0.0,72,0.00,CLR,FEW,0.00,WeatherDisplay:10.37,2013-01-11 21:54:00,
2013-01-11 16:59:00,39.4,31.4,30.39,North,0,0.0,0.0,73,0.00,CLR,FEW,0.00,WeatherDisplay:10.37,2013-01-11 21:59:00,
2013-01-11 17:04:00,39.2,31.3,30.39,North,0,0.0,0.0,73,0.00,CLR,FEW,0.00,WeatherDisplay:10.37,2013-01-11 22:04:00,
2013-01-11 17:09:00,39.0,31.4,30.38,North,0,0.0,0.0,74,0.00,CLR,FEW,0.00,WeatherDisplay:10.37,2013-01-11 22:09:00,
2013-01-11 17:14:00,38.8,31.9,30.38,North,0,0.0,0.0,76,0.00,CLR,FEW,0.00,WeatherDisplay:10.37,2013-01-11 22:14:00,
2013-01-11 17:19:00,38.7,31.7,30.38,North,0,0.0,0.0,76,0.00,CLR,FEW,0.00,WeatherDisplay:10.37,2013-01-11 22:19:00,
2013-01-11 17:24:00,38.5,31.9,30.38,North,0,0.0,0.0,77,0.00,CLR,FEW,0.00,WeatherDisplay:10.37,2013-01-11 22:24:00,
2013-01-11 17:29:00,38.3,32.0,30.38,North,0,0.0,0.0,78,0.00,CLR,FEW,0.00,WeatherDisplay:10.37,2013-01-11 22:29:00,
2013-01-11 17:34:00,38.1,31.9,30.38,North,0,0.0,0.0,78,0.00,CLR,FEW,0.00,WeatherDisplay:10.37,2013-01-11 22:34:00,
2013-01-11 17:39:00,38.1,32.2,30.37,North,0,0.0,0.0,79,0.00,CLR,FEW,0.00,WeatherDisplay:10.37,2013-01-11 22:39:00,
2013-01-11 17:44:00,37.9,32.3,30.37,North,0,0.0,0.0,80,0.00,CLR,FEW,0.00,WeatherDisplay:10.37,2013-01-11 22:44:00,
2013-01-11 17:49:00,37.9,32.3,30.37,North,0,0.0,0.0,80,0.00,CLR,FEW,0.00,WeatherDisplay:10.37,2013-01-11 22:49:00,
2013-01-11 17:54:00,37.9,32.3,30.37,North,0,0.0,0.0,80,0.00,CLR,FEW,0.00,WeatherDisplay:10.37,2013-01-11 22:54:00,
2013-01-11 17:59:00,37.8,32.1,30.37,North,0,0.0,0.0,80,0.00,CLR,FEW,0.00,WeatherDisplay:10.37,2013-01-11 22:59:00,
2013-01-11 18:04:00,37.8,32.1,30.37,North,0,0.0,0.0,80,0.00,CLR,FEW,0.00,WeatherDisplay:10.37,2013-01-11 23:04:00,
2013-01-11 18:09:00,37.9,32.3,30.37,North,0,0.0,0.0,80,0.00,CLR,FEW,0.00,WeatherDisplay:10.37,2013-01-11 23:09:00,
2013-01-11 18:14:00,37.9,32.3,30.36,North,0,0.0,0.0,80,0.00,CLR,FEW,0.00,WeatherDisplay:10.37,2013-01-11 23:14:00,
2013-01-11 18:19:00,37.8,32.1,30.36,North,0,0.0,0.0,80,0.00,CLR,FEW,0.00,WeatherDisplay:10.37,2013-01-11 23:19:00,
2013-01-11 18:24:00,37.8,32.1,30.36,North,0,0.0,0.0,80,0.00,CLR,FEW,0.00,WeatherDisplay:10.37,2013-01-11 23:24:00,
2013-01-11 18:29:00,37.9,32.3,30.36,North,0,0.0,0.0,80,0.00,CLR,FEW,0.00,WeatherDisplay:10.37,2013-01-11 23:29:00,
2013-01-11 18:34:00,37.9,32.3,30.36,North,0,0.0,0.0,80,0.00,CLR,FEW,0.00,WeatherDisplay:10.37,2013-01-11 23:34:00,
2013-01-11 18:39:00,37.9,32.3,30.36,North,0,0.0,0.0,80,0.00,CLR,FEW,0.00,WeatherDisplay:10.37,2013-01-11 23:39:00,
2013-01-11 18:44:00,37.9,32.3,30.36,North,0,0.0,0.0,80,0.00,CLR,FEW,0.00,WeatherDisplay:10.37,2013-01-11 23:44:00,
2013-01-11 18:49:00,37.9,32.6,30.36,North,0,0.0,0.0,81,0.00,CLR,FEW,0.00,WeatherDisplay:10.37,2013-01-11 23:49:00,
2013-01-11 18:54:00,37.8,32.5,30.36,North,0,0.0,0.0,81,0.00,CLR,FEW,0.00,WeatherDisplay:10.37,2013-01-11 23:54:00,
2013-01-11 18:59:00,37.8,32.8,30.34,North,0,0.0,0.0,82,0.00,CLR,FEW,0.00,WeatherDisplay:10.37,2013-01-11 23:59:00,
2013-01-11 19:04:00,37.9,32.6,30.34,North,0,0.0,0.0,81,0.00,CLR,FEW,0.00,WeatherDisplay:10.37,2013-01-12 00:04:00,
2013-01-11 19:09:00,37.9,32.6,30.34,North,0,0.0,0.0,81,0.00,CLR,FEW,0.00,WeatherDisplay:10.37,2013-01-12 00:09:00,
2013-01-11 19:14:00,37.9,32.6,30.33,North,0,0.0,0.0,81,0.00,CLR,FEW,0.00,WeatherDisplay:10.37,2013-01-12 00:14:00,
2013-01-11 19:19:00,38.1,33.1,30.33,North,0,0.0,0.0,82,0.00,CLR,FEW,0.00,WeatherDisplay:10.37,2013-01-12 00:19:00,
2013-01-11 19:24:00,38.1,33.1,30.34,North,0,0.0,0.0,82,0.00,CLR,FEW,0.00,WeatherDisplay:10.37,2013-01-12 00:24:00,
2013-01-11 19:29:00,38.1,33.1,30.34,North,0,0.0,0.0,82,0.00,CLR,FEW,0.00,WeatherDisplay:10.37,2013-01-12 00:29:00,
2013-01-11 19:34:00,38.3,33.3,30.34,North,0,0.0,0.0,82,0.00,CLR,FEW,0.00,WeatherDisplay:10.37,2013-01-12 00:34:00,
2013-01-11 19:39:00,38.3,33.3,30.34,North,0,0.0,0.0,82,0.00,CLR,FEW,0.00,WeatherDisplay:10.37,2013-01-12 00:39:00,
2013-01-11 19:44:00,38.3,33.3,30.34,North,0,0.0,0.0,82,0.00,CLR,FEW,0.00,WeatherDisplay:10.37,2013-01-12 00:44:00,
2013-01-11 19:49:00,38.3,33.6,30.33,North,0,0.0,0.0,83,0.00,CLR,FEW,0.00,WeatherDisplay:10.37,2013-01-12 00:49:00,
2013-01-11 19:54:00,38.3,33.6,30.33,North,0,0.0,0.0,83,0.00,CLR,FEW,0.00,WeatherDisplay:10.37,2013-01-12 00:54:00,
2013-01-11 19:59:00,38.3,33.6,30.33,North,0,0.0,0.0,83,0.00,CLR,FEW,0.00,WeatherDisplay:10.37,2013-01-12 00:59:00,
2013-01-11 20:04:00,38.3,33.9,30.33,North,0,0.0,0.0,84,0.00,CLR,FEW,0.00,WeatherDisplay:10.37,2013-01-12 01:04:00,
2013-01-11 20:09:00,38.5,34.1,30.33,North,0,0.0,0.0,84,0.00,CLR,FEW,0.00,WeatherDisplay:10.37,2013-01-12 01:09:00,
2013-01-11 20:14:00,38.5,34.1,30.32,North,0,0.0,0.0,84,0.00,CLR,FEW,0.00,WeatherDisplay:10.37,2013-01-12 01:14:00,
2013-01-11 20:19:00,38.5,34.4,30.33,North,0,0.0,0.0,85,0.02,RA,FEW,0.02,WeatherDisplay:10.37,2013-01-12 01:19:00,
2013-01-11 20:24:00,38.3,34.2,30.32,North,0,0.0,0.0,85,0.02,RA,FEW,0.02,WeatherDisplay:10.37,2013-01-12 01:24:00,
2013-01-11 20:29:00,38.3,34.2,30.31,North,0,0.0,0.0,85,0.02,CLR,FEW,0.02,WeatherDisplay:10.37,2013-01-12 01:29:00,
2013-01-11 20:34:00,38.5,34.7,30.31,North,0,0.0,0.0,86,0.02,CLR,FEW,0.02,WeatherDisplay:10.37,2013-01-12 01:34:00,
2013-01-11 20:39:00,38.5,34.7,30.31,North,0,0.0,0.0,86,0.02,CLR,FEW,0.02,WeatherDisplay:10.37,2013-01-12 01:39:00,
2013-01-11 20:44:00,38.5,34.7,30.31,North,0,0.0,0.0,86,0.02,CLR,FEW,0.02,WeatherDisplay:10.37,2013-01-12 01:44:00,
2013-01-11 20:49:00,38.5,34.9,30.31,North,0,0.0,0.0,87,0.02,CLR,FEW,0.02,WeatherDisplay:10.37,2013-01-12 01:49:00,
2013-01-11 20:54:00,38.5,34.9,30.31,North,0,0.0,0.0,87,0.04,RA,FEW,0.04,WeatherDisplay:10.37,2013-01-12 01:54:00,
2013-01-11 20:59:00,38.5,34.9,30.30,North,0,0.0,0.0,87,0.04,RA,FEW,0.04,WeatherDisplay:10.37,2013-01-12 01:59:00,
2013-01-11 21:04:00,38.7,35.1,30.30,North,0,0.0,0.0,87,0.04,CLR,FEW,0.04,WeatherDisplay:10.37,2013-01-12 02:04:00,
2013-01-11 21:09:00,38.7,35.1,30.30,North,0,0.0,0.0,87,0.04,CLR,FEW,0.04,WeatherDisplay:10.37,2013-01-12 02:09:00,
2013-01-11 21:14:00,38.8,35.3,30.31,North,0,0.0,0.0,87,0.04,CLR,FEW,0.04,WeatherDisplay:10.37,2013-01-12 02:14:00,
2013-01-11 21:19:00,38.8,35.3,30.30,North,0,0.0,0.0,87,0.02,CLR,FEW,0.04,WeatherDisplay:10.37,2013-01-12 02:19:00,
2013-01-11 21:24:00,38.8,35.3,30.30,North,0,0.0,0.0,87,0.04,RA,FEW,0.06,WeatherDisplay:10.37,2013-01-12 02:24:00,
2013-01-11 21:29:00,38.8,35.3,30.30,North,0,0.0,0.0,87,0.04,RA,FEW,0.06,WeatherDisplay:10.37,2013-01-12 02:29:00,
2013-01-11 21:34:00,38.8,35.3,30.29,North,0,0.0,0.0,87,0.04,CLR,FEW,0.06,WeatherDisplay:10.37,2013-01-12 02:34:00,
2013-01-11 21:39:00,38.8,35.3,30.29,North,0,0.0,0.0,87,0.04,CLR,FEW,0.06,WeatherDisplay:10.37,2013-01-12 02:39:00,
2013-01-11 21:44:00,38.8,35.6,30.29,North,0,0.0,0.0,88,0.04,CLR,FEW,0.06,WeatherDisplay:10.37,2013-01-12 02:44:00,
2013-01-11 21:49:00,39.0,35.8,30.30,North,0,0.0,0.0,88,0.04,CLR,FEW,0.06,WeatherDisplay:10.37,2013-01-12 02:49:00,
2013-01-11 21:54:00,39.0,35.8,30.29,North,0,0.0,0.0,88,0.02,CLR,FEW,0.06,WeatherDisplay:10.37,2013-01-12 02:54:00,
2013-01-11 21:59:00,39.0,35.8,30.29,North,0,0.0,0.0,88,0.04,RA,FEW,0.08,WeatherDisplay:10.37,2013-01-12 02:59:00,
2013-01-11 22:04:00,39.0,35.8,30.29,North,0,0.0,0.0,88,0.04,RA,FEW,0.08,WeatherDisplay:10.37,2013-01-12 03:04:00,
2013-01-11 22:09:00,39.2,35.9,30.30,North,0,0.0,0.0,88,0.06,RA,FEW,0.10,WeatherDisplay:10.37,2013-01-12 03:09:00,
2013-01-11 22:14:00,39.2,35.9,30.31,North,0,0.0,0.0,88,0.06,RA,FEW,0.10,WeatherDisplay:10.37,2013-01-12 03:14:00,
2013-01-11 22:19:00,39.2,35.9,30.31,North,0,0.0,0.0,88,0.06,CLR,FEW,0.10,WeatherDisplay:10.37,2013-01-12 03:19:00,
2013-01-11 22:24:00,39.2,35.9,30.30,North,0,0.0,0.0,88,0.04,CLR,FEW,0.10,WeatherDisplay:10.37,2013-01-12 03:24:00,
2013-01-11 22:29:00,39.0,35.8,30.30,North,0,0.0,0.0,88,0.06,RA,FEW,0.12,WeatherDisplay:10.37,2013-01-12 03:29:00,
2013-01-11 22:34:00,39.0,35.8,30.30,North,0,0.0,0.0,88,0.06,RA,FEW,0.12,WeatherDisplay:10.37,2013-01-12 03:34:00,
2013-01-11 22:39:00,39.0,35.8,30.30,North,0,0.0,0.0,88,0.08,RA,FEW,0.14,WeatherDisplay:10.37,2013-01-12 03:39:00,
2013-01-11 22:44:00,39.2,35.9,30.29,North,0,0.0,0.0,88,0.08,RA,FEW,0.14,WeatherDisplay:10.37,2013-01-12 03:44:00,
2013-01-11 22:49:00,39.0,35.8,30.28,North,0,0.0,0.0,88,0.08,CLR,FEW,0.14,WeatherDisplay:10.37,2013-01-12 03:49:00,
2013-01-11 22:54:00,39.0,35.8,30.27,North,0,0.0,0.0,88,0.08,CLR,FEW,0.14,WeatherDisplay:10.37,2013-01-12 03:54:00,
2013-01-11 22:59:00,39.2,35.9,30.27,North,0,0.0,0.0,88,0.06,CLR,FEW,0.14,WeatherDisplay:10.37,2013-01-12 03:59:00,
2013-01-11 23:04:00,39.4,36.1,30.27,North,0,0.0,0.0,88,0.06,CLR,FEW,0.14,WeatherDisplay:10.37,2013-01-12 04:04:00,
2013-01-11 23:09:00,39.4,36.4,30.27,North,0,0.0,0.0,89,0.04,CLR,FEW,0.14,WeatherDisplay:10.37,2013-01-12 04:09:00,
2013-01-11 23:14:00,39.6,36.6,30.26,North,0,0.0,0.0,89,0.04,CLR,FEW,0.14,WeatherDisplay:10.37,2013-01-12 04:14:00,
2013-01-11 23:19:00,39.6,36.6,30.26,North,0,0.0,0.0,89,0.04,CLR,FEW,0.14,WeatherDisplay:10.37,2013-01-12 04:19:00,
2013-01-11 23:24:00,39.7,36.5,30.26,North,0,0.0,0.0,88,0.04,CLR,FEW,0.14,WeatherDisplay:10.37,2013-01-12 04:24:00,
2013-01-11 23:29:00,39.7,36.8,30.26,North,0,0.0,0.0,89,0.02,CLR,FEW,0.14,WeatherDisplay:10.37,2013-01-12 04:29:00,
2013-01-11 23:34:00,39.9,36.9,30.26,North,0,0.0,0.0,89,0.02,CLR,FEW,0.14,WeatherDisplay:10.37,2013-01-12 04:34:00,
2013-01-11 23:39:00,39.9,36.9,30.26,North,0,0.0,0.0,89,0.00,CLR,FEW,0.14,WeatherDisplay:10.37,2013-01-12 04:39:00,
2013-01-11 23:44:00,40.1,37.1,30.26,North,0,0.0,0.0,89,0.00,CLR,FEW,0.14,WeatherDisplay:10.37,2013-01-12 04:44:00,
2013-01-11 23:49:00,40.3,37.3,30.27,North,0,0.0,0.0,89,0.00,CLR,FEW,0.14,WeatherDisplay:10.37,2013-01-12 04:49:00,
2013-01-11 23:54:00,40.3,37.3,30.27,North,0,0.0,0.0,89,0.00,CLR,FEW,0.14,WeatherDisplay:10.37,2013-01-12 04:54:00,
2013-01-11 23:59:00,40.3,37.3,30.27,North,0,0.0,0.0,89,0.00,CLR,FEW,0.14,WeatherDisplay:10.37,2013-01-12 04:59:00,